Погода в Батаме

Индонезия     1°05′09″N   104°01′51″E
темп.,
°C
ветер,
м/с
пор.,
м/с
влажн.,
%
обл.,
%
осадки,
мм/ч
давл.,
гПа
погр.,
м
2 марта, вт
вт201:00+26св358359 0.0 1011321
04:00+25ссв258479 0.0 1009245
07:00+25ссв358140 0.0 1012350
10:00+31с33540 0.0 1013967
13:00+33св33440 0.0 10101386
16:00+30св56597 0.0 1007719
19:00+27св59728 0.0 1009535
22:00+26св587938 0.0 1011601
3 марта, ср
ср301:00+26св488236 0.0 1011508
04:00+25св4785100 0.0 1009521
07:00+26ссв4683100 0.0 1011604
10:00+30ссв566567 0.0 10121049
13:00+31св565684 0.0 10101205
16:00+30св786233 0.0 1007948
19:00+27св587517 0.0 1009786
22:00+27св47777 0.0 1012788
4 марта, чт
чт401:00+26св477928 0.0 1011570
04:00+25ссв25868 0.0 1010280
07:00+26ссв238118 0.1 1012186
10:00+31св346014 0.4 10131029
13:00+32всв235428 0.7 10101178
16:00+31в346072 0.1 1007885
19:00+27св477958 0.1 1009490
22:00+27св368368 0.0 1011528
5 марта, пт
пт501:00+26св368567 0.0 1011448
04:00+26ссв478590 0.0 1010510
07:00+26ссв358487 0.0 1011442
10:00+31св446255 0.0 1013973
13:00+32св555276 0.0 10101071
16:00+30всв5662100 0.0 1008732
19:00+27св5877100 0.0 1009602
22:00+27св4884100 0.0 1011603
6 марта, сб
сб601:00+26св4785100 0.0 1010595
04:00+26св4786100 0.0 1008519
07:00+27св4782100 0.0 1010727
10:00+31св456380 0.0 10121001
13:00+32св555665 0.0 10101116
16:00+30св666223 0.1 1007760
19:00+27св488031 0.1 1009568
22:00+27св488113 0.1 1011643